Home   Weather   Oelde   Past weeks
Flag for Germany

Past Weather in Oelde, North Rhine-Westphalia, Germany — Yesterday and Last 2 Weeks

Now
52 °F

Clear.


Feels Like: 48 °F
Forecast: 57 / 50 °F
Wind: 10 mph from South

Location: Paderborn / Lippstadt

Current Time: Oct 18, 2019 at 10:10:54 pm

Latest Report: Oct 18, 2019 at 9:20 pm


Visibility: 10 mi

Pressure: 29.80 "Hg

Humidity: 72%

Dew Point: 43 °F

Location of OeldeLocation

Past Weather in Oelde — Graph

°F

Oelde Temperature Yesterday

Maximum temperature yesterday: 64 °F (at 2:50 pm)
Minimum temperature yesterday: 57 °F (at 12:20 am)
Average temperature yesterday: 59 °F

High & Low Weather Summary for the Past Weeks

 TemperatureHumidityPressure
High75 °F (Oct 13, 3:20 pm)100% (Oct 4, 10:20 pm)30.12 "Hg (Oct 4, 10:20 pm)
Low39 °F (Oct 7, 4:50 am)53% (Oct 13, 2:50 pm)29.56 "Hg (Oct 4, 5:50 pm)
Average55 °F79%29.84 "Hg
* Reported Oct 3 8:20 pm — Oct 18 8:50 pm, Oelde. Weather by CustomWeather, © 2019

Note: Actual official high and low records may vary slightly from our data, if they occured in-between our weather recording intervals... More about our weather records

Advertising

Oelde Weather History for the Previous 24 Hours

Scroll right to see more
 ConditionsComfort  
Time TempWeatherWind HumidityBarometerVisibility
8:50 pm
Fri, Oct 18
52 °FClear.9 mph72%29.80 "Hg10 mi
8:20 pm52 °FClear.12 mph72%29.80 "Hg10 mi
7:50 pm52 °FClear.12 mph72%29.80 "Hg10 mi
7:20 pm52 °FClear.10 mph72%29.80 "Hg10 mi
6:50 pm52 °FPassing clouds.12 mph72%29.77 "HgN/A
6:20 pm52 °FSunny.13 mph72%29.77 "Hg10 mi
5:50 pm54 °FPassing clouds.17 mph67%29.74 "HgN/A
5:20 pm54 °FPassing clouds.17 mph67%29.74 "HgN/A
4:50 pm55 °FPassing clouds.18 mph63%29.74 "HgN/A
4:20 pm55 °FSunny.23 mph63%29.71 "Hg10 mi
3:50 pm55 °FSunny.20 mph59%29.71 "Hg10 mi
3:20 pm55 °FSunny.18 mph67%29.68 "Hg10 mi
2:50 pm54 °FSprinkles. Scattered clouds.22 mph72%29.71 "HgN/A
2:20 pm57 °FSprinkles. Partly sunny.17 mph63%29.71 "HgN/A
1:50 pm63 °FScattered clouds.18 mph59%29.68 "HgN/A
1:20 pm63 °FScattered clouds.17 mph64%29.68 "HgN/A
12:50 pm61 °FPassing clouds.17 mph68%29.68 "HgN/A
12:20 pm61 °FPassing clouds.17 mph68%29.71 "HgN/A
11:50 am61 °FPassing clouds.16 mph68%29.71 "HgN/A
11:20 am61 °FPassing clouds.15 mph68%29.74 "HgN/A
10:20 am59 °FSunny.13 mph72%29.74 "Hg10 mi
9:50 am59 °FSunny.12 mph72%29.74 "Hg10 mi
9:20 am59 °FSunny.12 mph72%29.74 "Hg10 mi
8:50 am57 °FSunny.14 mph77%29.74 "Hg10 mi
8:20 am57 °FSunny.15 mph77%29.74 "Hg10 mi
7:50 am57 °FClear.15 mph77%29.74 "Hg10 mi
7:20 am57 °FClear.17 mph72%29.74 "Hg10 mi
6:50 am54 °FClear.12 mph82%29.77 "Hg10 mi
6:20 am54 °FClear.10 mph82%29.77 "Hg10 mi
5:50 am54 °FClear.10 mph82%29.80 "Hg10 mi
5:20 am54 °FClear.10 mph82%29.80 "Hg10 mi
4:50 am55 °FClear.10 mph82%29.80 "Hg10 mi
4:20 am55 °FClear.8 mph82%29.80 "Hg10 mi
3:50 am55 °FClear.10 mph82%29.80 "Hg10 mi
3:20 am57 °FPassing clouds.7 mph82%29.83 "HgN/A
2:50 am55 °FPassing clouds.7 mph88%29.83 "HgN/A
2:20 am57 °FClear.6 mph88%29.83 "Hg10 mi
1:50 am57 °FPassing clouds.9 mph88%29.83 "HgN/A
1:20 am57 °FPassing clouds.10 mph88%29.83 "HgN/A
12:50 am57 °FPassing clouds.10 mph88%29.83 "HgN/A
12:20 am57 °FPassing clouds.8 mph88%29.83 "HgN/A
11:50 pm
Thu, Oct 17
57 °FPassing clouds.6 mph88%29.83 "HgN/A
11:20 pm57 °FClear.8 mph88%29.83 "Hg10 mi
10:50 pm57 °FClear.8 mph88%29.83 "Hg10 mi
10:20 pm57 °FPassing clouds.8 mph88%29.83 "HgN/A
Weather by CustomWeather, © 2019

See weather overview